Fort Leonard Wood, MO

5:30 PM CDT on October 13, 2019 (GMT -0500)
Waynesville Regional At Forney Field

Weather History for KTBN - May, 2019

Change the Weather History Date:

Thursday, May 30, 2019

  Actual Average Record
Temperature  
Mean Temperature 66 °F -  
Max Temperature 75 °F 75 °F 89 °F (1998)
Min Temperature 58 °F 59 °F 51 °F (2005)
Cooling Degree Days 1    
Growing Degree Days 16 (Base 50)    
Moisture  
Dew Point 56 °F    
Average Humidity 74    
Maximum Humidity 100    
Minimum Humidity 46    
Precipitation  
Precipitation 0.00 in - - ()
Sea Level Pressure  
Sea Level Pressure 29.86 in    
Wind  
Wind Speed 4 mph (SW)    
Max Wind Speed 12 mph    
Max Gust Speed 20 mph    
Visibility 10 miles    
Events      
Averages and records for this station are not official NWS values.
T = Trace of Precipitation, MM = Missing Value Source: NWS Daily Summary

Daily Weather History Graph

Daily Weather History Graph

Search for Another Location

Airport or City:

Astronomy

May. 30, 2019 Rise Set
Actual Time 5:49 AM CDT 8:23 PM CDT
Civil Twilight 5:18 AM CDT 8:53 PM CDT
Nautical Twilight 4:40 AM CDT 9:31 PM CDT
Astronomical Twilight 3:58 AM CDT 10:14 PM CDT
Moon 3:49 AM CDT (5/30) 4:36 PM CDT (5/30)
Length of Visible Light 15h 35m
Length of Day
14h 33m
Waning Crescent, 15% of the Moon is Illuminated
May 30
Waning Crescent
Jun 3
New
Jun 10
First Quarter
Jun 17
Full
Jun 25
Last Quarter

Hourly Weather History & Observations

Time (CDT) Temp. Dew Point Humidity Pressure Visibility Wind Dir Wind Speed Gust Speed Precip Events Conditions
12:56 AM 59.9 °F 58.5 °F 95% 29.83 in 10.0 mi Calm Calm - N/A   Clear
1:56 AM 59.4 °F 58.3 °F 96% 29.83 in 10.0 mi South 4.6 mph - N/A   Clear
2:56 AM 58.5 °F 57.4 °F 96% 29.82 in 10.0 mi SW 4.6 mph - N/A   Clear
3:56 AM 59.0 °F 57.6 °F 95% 29.81 in 10.0 mi West 4.6 mph - N/A   Clear
4:56 AM 58.5 °F 57.0 °F 95% 29.83 in 10.0 mi Calm Calm - N/A   Partly Cloudy
5:11 AM 59.0 °F 57.2 °F 94% 29.83 in 10.0 mi SSW 3.5 mph - N/A   Mostly Cloudy
5:36 AM 59.0 °F 57.2 °F 94% 29.83 in 10.0 mi South 3.5 mph - N/A   Scattered Clouds
5:56 AM 58.5 °F 57.4 °F 96% 29.84 in 10.0 mi SSW 3.5 mph - N/A   Scattered Clouds
6:01 AM 59.0 °F 57.2 °F 94% 29.84 in 10.0 mi SSW 3.5 mph - N/A   Mostly Cloudy
6:36 AM 59.0 °F 59.0 °F 100% 29.84 in 10.0 mi Calm Calm - N/A   Scattered Clouds
6:56 AM 60.6 °F 59.5 °F 96% 29.84 in 10.0 mi Calm Calm - N/A   Clear
7:56 AM 64.2 °F 60.6 °F 88% 29.86 in 10.0 mi WSW 6.9 mph - N/A   Clear
8:56 AM 65.8 °F 56.8 °F 73% 29.87 in 10.0 mi West 6.9 mph 17.3 mph N/A   Partly Cloudy
9:56 AM 67.5 °F 54.0 °F 62% 29.88 in 10.0 mi West 10.4 mph - N/A   Partly Cloudy
10:56 AM 69.8 °F 53.4 °F 56% 29.89 in 10.0 mi West 9.2 mph 17.3 mph N/A   Scattered Clouds
11:56 AM 70.5 °F 53.1 °F 54% 29.89 in 10.0 mi West 10.4 mph 19.6 mph N/A   Scattered Clouds
12:56 PM 70.7 °F 52.2 °F 52% 29.88 in 10.0 mi WSW 11.5 mph 18.4 mph N/A   Mostly Cloudy
1:56 PM 73.4 °F 51.8 °F 47% 29.88 in 10.0 mi WSW 10.4 mph 18.4 mph N/A   Scattered Clouds
2:56 PM 74.3 °F 53.2 °F 48% 29.88 in 10.0 mi West 8.1 mph - N/A   Scattered Clouds
3:56 PM 74.5 °F 52.3 °F 46% 29.88 in 10.0 mi West 10.4 mph 18.4 mph N/A   Scattered Clouds
4:56 PM 73.2 °F 52.3 °F 48% 29.88 in 10.0 mi West 9.2 mph 17.3 mph N/A   Scattered Clouds
5:56 PM 73.8 °F 53.4 °F 49% 29.87 in 10.0 mi West 5.8 mph - N/A   Scattered Clouds
6:56 PM 73.0 °F 53.2 °F 50% 29.87 in 10.0 mi WSW 5.8 mph - N/A   Clear
7:56 PM 69.6 °F 55.9 °F 62% 29.87 in 10.0 mi SW 3.5 mph - N/A   Clear
9:56 PM 63.3 °F 54.5 °F 73% 29.88 in 10.0 mi South 5.8 mph - N/A   Clear
10:56 PM 64.0 °F 53.2 °F 68% 29.89 in 10.0 mi South 5.8 mph - N/A   Clear
11:56 PM 64.2 °F 53.1 °F 67% 29.88 in 10.0 mi SSW 6.9 mph - N/A   Partly Cloudy